Location: Newark
(28.9833°N, 10.0667°W)
Time: 05:55:23
(UTC+00:00)

ISS - Visible Passes

Search period start: 06 December 2019 00:00
Search period end: 16 December 2019 00:00
Orbit: 411 x 421 km, 51.6° (Epoch: 06 December)

Date Brightness Start Highest point End Pass type
(mag) Time Alt. Az. Time Alt. Az. Time Alt. Az.
08 Dec -1.2 19:03:40 10° N 19:03:56 11° N 19:03:56 11° N visible
09 Dec -1.5 18:16:45 10° NNE 18:17:15 10° NE 18:17:46 10° NE visible
09 Dec -0.7 19:50:58 10° NW 19:51:12 12° NW 19:51:12 12° NW visible
10 Dec -3.7 19:02:30 10° NNW 19:05:48 53° NE 19:05:54 53° NE visible
11 Dec -2.7 18:14:18 10° NNW 18:17:12 27° NE 18:20:07 10° ESE visible
11 Dec -1.0 19:51:26 10° W 19:53:45 17° SW 19:54:13 17° SW visible
12 Dec -2.1 19:02:14 10° WNW 19:05:20 35° SW 19:08:26 10° SSE visible
13 Dec -3.6 18:13:30 10° NW 18:16:51 79° SW 18:20:12 10° SE visible
15 Dec -0.6 18:13:45 10° WNW 18:16:14 19° SW 18:18:43 10° S visible
